Racecast

Aminah Whitted-Nti

Legion of Zoom Track Club (VA) · - · Compare head to head

Athlete rating
Races 32
Seasons 1 2026
Speed rating — all races

Track & Field

TF speed rating

2026 TF

Legion of Zoom Track Club (VA) · Grade -

Date Meet Event Result Place Rating Difficulty PR/SR Flags
2026-06-20 Legacy Juneteenth Track Showcase softball 7.59m -0.027
2026-06-20 Legacy Juneteenth Track Showcase 100m 18.96 8th · 4th on team -0.027
2026-06-20 Legacy Juneteenth Track Showcase 100m 18.9 6th · 2nd on team -0.027
2026-06-20 Legacy Juneteenth Track Showcase 50m 9.55 2nd · 1st on team -0.027 ★PR SR
2026-06-13 AAU Virginia District Qualifier - South softball 31' 7" -0.033
2026-06-13 AAU Virginia District Qualifier - South 50m 9.73 4th · 2nd on team -0.033 PR SR
2026-06-13 AAU Virginia District Qualifier - South 100m 19.27 8th · 2nd on team -0.033
2026-05-30 Va Beach Flames Invite softball 24' 2" -0.023
2026-05-30 Va Beach Flames Invite 100m 18.94 10th · 1st on team -0.023
2026-05-30 Va Beach Flames Invite 100m 19.36 13th · 4th on team -0.023
2026-05-30 Va Beach Flames Invite 200m 42.92 4th · 1st on team -0.023 ★PR SR
2026-05-24 HR Hurricanes CAT 5 Invite 50m 9.78 3rd · 2nd on team -0.035
2026-05-24 HR Hurricanes CAT 5 Invite 100m 19.64 10th · 3rd on team -0.035
2026-05-24 HR Hurricanes CAT 5 Invite 100m 19.14 4th · 1st on team -0.035
2026-05-09 VA "Legends" T & F Youth Invite softball 6.40m -0.033
2026-05-09 VA "Legends" T & F Youth Invite 200m 43.15 6th · 1st on team -0.033 PR SR
2026-05-09 VA "Legends" T & F Youth Invite 100m 20.93 8th · 1st on team -0.033
2026-05-03 Queen Harrison Track Classic - -Youth Section 100m 18.62 2nd · 1st on team -0.033 ★PR SR
2026-05-03 Queen Harrison Track Classic - -Youth Section 50m 9.74 2nd · 1st on team -0.033 PR SR
2026-04-26 Virginia Pride Spring Kick-Off 200m 44.74 6th · 1st on team -0.029
2026-04-26 Virginia Pride Spring Kick-Off 100m 21.42 6th · 1st on team -0.029
2026-03-06 AAU Indoor National Championship 200m 55.9 42nd · 1st on team -0.036
2026-03-06 AAU Indoor National Championship 60m 11.68 15th · 1st on team -0.036 ★PR SR
2026-02-22 3rd Annual HRH Winter Storm Classic 55m 10.99 4th · 1st on team -0.024 ★PR SR
2026-02-22 3rd Annual HRH Winter Storm Classic 200m 43.78 2nd · 1st on team -0.024 PR SR
2026-01-17 BWSP Queens and Kings - Meet 2 100m 19.93 2nd · 1st on team -0.024
2026-01-17 BWSP Queens and Kings - Meet 2 55m 11.33 5th · 2nd on team -0.024 PR SR
2026-01-17 BWSP Queens and Kings - Meet 2 55m 11.04 4th · 1st on team -0.024 PR SR
2026-01-03 BWSP Queens and Kings - Meet 1 55m 11.54 2nd · 1st on team -0.024 PR SR
2026-01-03 BWSP Queens and Kings - Meet 1 100m 19.75 3rd · 1st on team -0.024 PR SR
2025-12-20 2025 Howard White Holiday Track Classic 100m 20.66 1st · 1st on team -0.024 PR SR
2025-12-20 2025 Howard White Holiday Track Classic 200m 43.83 4th · 1st on team -0.024 PR SR